Regional Weather Roundup
Issued by NWS

Home | Current Version | Previous Version | Graphics & Text | Print | Product List | Glossary On
Versions: 1 2 3 4 5 6 7 8 9 10 11 12 13 14 15 16 17 18 19 20 21 22 23 24 25 26 27
000
ASUS45 KBOI 222210
RWRID

IDAHO REGIONAL WEATHER ROUNDUP
NATIONAL WEATHER SERVICE BOISE ID
300 PM MST WED FEB 22 2017

NOTE: "FAIR" INDICATES FEW OR NO CLOUDS BELOW 12000 FEET
WITH NO SIGNIFICANT WEATHER AND/OR OBSTRUCTIONS TO VISIBILITY

IDZ012-014-222300-
SOUTHWEST IDAHO


CITY           SKY/WX    TMP DP  RH WIND       PRES   REMARKS
BOISE          CLOUDY    39  28  64 NW7       29.90F WCI  34
CALDWELL       CLOUDY    40  30  67 NW9       29.93F WCI  34
MOUNTAIN HOME  CLOUDY    41  30  65 NW18      29.87F
$$

IDZ016-017-222300-
SOUTHCENTRAL IDAHO


CITY           SKY/WX    TMP DP  RH WIND       PRES   REMARKS
BURLEY         LGT SNOW  36  27  69 W5        29.84F WCI  32
JEROME           N/A    N/A N/A N/A MISG      29.85F
TWIN FALLS     CLOUDY    36  29  75 E8        29.84F WCI  30
$$

IDZ019>023-222300-
SOUTHEAST IDAHO


CITY           SKY/WX    TMP DP  RH WIND       PRES   REMARKS
IDAHO FALLS    MOSUNNY   35  27  72 NW7       29.86F WCI  29
POCATELLO      CLOUDY    38  24  57 NW8       29.86F WCI  32
REXBURG        SUNNY     37  21  52 MISG      29.85F
$$

IDZ006-010-011-018-031-032-222300-
CENTRAL IDAHO MOUNTAINS


CITY           SKY/WX    TMP DP  RH WIND       PRES   REMARKS
MCCALL         CLOUDY    31  22  69 NW10      29.83F WCI  22
HAILEY         PTSUNNY   32  21  64 E7        29.84F WCI  26
STANLEY          N/A     30  12  47 N5        29.80F WCI  25
SALMON         MOSUNNY   41  27  56 N7        29.83F
CHALLIS        SUNNY     36  18  48 N3        29.82F
$$

IDZ002-004-006-007-026-222300-
NORTHERN IDAHO


CITY           SKY/WX    TMP DP  RH WIND       PRES   REMARKS
LEWISTON       CLOUDY    44  30  57 NW6       30.04S
LOWELL           N/A     39  34  82 VRB5      30.04F
COEUR D`ALENE  CLOUDY    36  31  82 S5        30.02F WCI  32
MULLAN PASS    FOG       26  24  92 NW6       29.85F VSB 1/2 WCI  19
$$




USA.gov is the U.S. government's official web portal to all federal, state and local government web resources and services.